TimeCST,TemperatureF,Dew PointF,Humidity,Sea Level PressureIn,VisibilityMPH,Wind Direction,Wind SpeedMPH,Gust SpeedMPH,PrecipitationIn,Events,Conditions,WindDirDegrees,DateUTC
12:11 AM,28.4,21.2,74,29.62,10.0,WNW,24.2,35.7,N/A,,Mostly Cloudy,300,2012-02-29 06:11:00
12:45 AM,28.4,21.2,74,29.64,10.0,WNW,23.0,32.2,N/A,,Overcast,290,2012-02-29 06:45:00
12:53 AM,28.9,21.0,72,29.68,10.0,WNW,28.8,36.8,N/A,,Overcast,300,2012-02-29 06:53:00
1:53 AM,28.0,19.0,69,29.71,10.0,WNW,26.5,38.0,N/A,,Partly Cloudy,290,2012-02-29 07:53:00
2:53 AM,28.0,19.9,72,29.72,10.0,WNW,27.6,38.0,N/A,,Partly Cloudy,300,2012-02-29 08:53:00
3:53 AM,28.0,19.9,72,29.71,10.0,WNW,21.9,32.2,N/A,,Clear,300,2012-02-29 09:53:00
4:53 AM,28.9,21.0,72,29.73,10.0,WNW,20.7,-,N/A,,Clear,290,2012-02-29 10:53:00
5:24 AM,30.2,21.2,69,29.71,10.0,WNW,23.0,32.2,N/A,,Mostly Cloudy,290,2012-02-29 11:24:00
5:53 AM,28.9,21.0,72,29.77,10.0,WNW,21.9,33.4,N/A,,Scattered Clouds,290,2012-02-29 11:53:00
6:53 AM,30.0,21.0,69,29.79,10.0,WNW,27.6,32.2,N/A,,Mostly Cloudy,290,2012-02-29 12:53:00
7:53 AM,30.0,21.0,69,29.81,10.0,WNW,20.7,-,N/A,,Clear,290,2012-02-29 13:53:00
8:53 AM,33.1,21.0,61,29.84,10.0,WNW,19.6,27.6,N/A,,Clear,290,2012-02-29 14:53:00
9:53 AM,37.0,21.9,54,29.85,10.0,WNW,28.8,36.8,N/A,,Clear,300,2012-02-29 15:53:00
10:53 AM,43.0,21.9,43,29.86,10.0,NW,25.3,41.4,N/A,,Clear,310,2012-02-29 16:53:00
11:53 AM,44.1,23.0,43,29.87,10.0,NW,21.9,34.5,N/A,,Clear,310,2012-02-29 17:53:00
12:53 PM,46.9,21.0,36,29.85,10.0,NW,27.6,34.5,N/A,,Clear,320,2012-02-29 18:53:00
1:53 PM,48.9,19.9,32,29.84,10.0,NW,25.3,31.1,N/A,,Clear,310,2012-02-29 19:53:00
2:53 PM,50.0,19.9,31,29.84,10.0,NW,21.9,25.3,N/A,,Clear,310,2012-02-29 20:53:00
3:53 PM,50.0,19.0,29,29.86,10.0,NW,13.8,21.9,N/A,,Clear,310,2012-02-29 21:53:00
4:53 PM,48.9,16.0,27,29.85,10.0,NNW,11.5,-,N/A,,Clear,330,2012-02-29 22:53:00
5:53 PM,46.0,17.1,31,29.85,10.0,WNW,3.5,-,N/A,,Clear,290,2012-02-29 23:53:00
6:53 PM,35.1,19.0,52,29.86,10.0,ENE,3.5,-,N/A,,Clear,60,2012-03-01 00:53:00
7:53 PM,30.0,18.0,61,29.87,10.0,SE,5.8,-,N/A,,Clear,130,2012-03-01 01:53:00
8:53 PM,28.0,17.1,63,29.84,10.0,East,4.6,-,N/A,,Clear,90,2012-03-01 02:53:00
9:53 PM,24.1,19.0,81,29.84,10.0,Calm,Calm,-,N/A,,Clear,0,2012-03-01 03:53:00
10:53 PM,25.0,19.0,78,29.83,10.0,ENE,5.8,-,N/A,,Clear,70,2012-03-01 04:53:00
11:53 PM,24.1,18.0,77,29.80,10.0,East,4.6,-,N/A,,Clear,90,2012-03-01 05:53:00